[Iaude] MPEC G194: 2024 GJ5 [a=0.91,e=0.21,i=13.6,H=26.9]

mpec at cfa.harvard.edu mpec at cfa.harvard.edu
Sat Apr 13 21:27:49 EDT 2024


M.P.E.C. 2024-G194                               Issued 2024 April 14, 01:26 UT

     The Minor Planet Electronic Circulars contain information on unusual
         minor planets, routine data on comets and natural satellites,
         and occasional editorial announcements.  They are published
    on behalf of Division F of the International Astronomical Union by the
          Minor Planet Center, Smithsonian Astrophysical Observatory,
                          Cambridge, MA 02138, U.S.A.
			  
             Prepared using the Tamkin Foundation Computer Network

                              MPC at CFA.HARVARD.EDU
            URL https://www.minorplanetcenter.net/    ISSN 1523-6714

                                    2024 GJ5                                    


Observations:
     K24G05J*KC2024 04 12.36868 15 13 23.899-06 29 48.80         19.8 GVEG194W16
     K24G05J KC2024 04 12.37166 15 13 20.148-06 27 50.83         19.6 GVEG194W16
     K24G05J KC2024 04 12.37471 15 13 16.236-06 25 50.70         19.8 GVEG194W16
     K24G05J KC2024 04 12.37769 15 13 12.526-06 23 53.05         19.6 GVEG194W16
     K24G05J KC2024 04 12.38050 15 13 08.938-06 22 01.88         19.8 GVEG194W16
     K24G05J KC2024 04 12.38323 15 13 05.558-06 20 14.71         19.5 GVEG194W16
     K24G05J KC2024 04 13.28016 14 58 08.597+02 36 04.72         19.6 GVEG194W16
     K24G05J KC2024 04 13.28610 14 58 02.407+02 39 16.34         19.4 GVEG194W16
     K24G05J KC2024 04 13.29183 14 57 56.383+02 42 22.00         19.8 GVEG194W16
     K24G05J mC2024 04 13.32425114 57 31.597+02 59 56.18         19.68GVEG194I52
     K24G05J mC2024 04 13.32447814 57 31.360+03 00 02.99         19.59GVEG194I52
     K24G05J mC2024 04 13.32471014 57 31.118+03 00 10.94         19.71GVEG194I52
     K24G05J KB2024 04 14.04489314 47 20.55 +08 51 19.0          19.9 GXEG194I93
     K24G05J KB2024 04 14.04700714 47 18.70 +08 52 15.5          19.3 GXEG194I93
     K24G05J KB2024 04 14.04911014 47 16.76 +08 53 11.4          19.5 GXEG194I93

Observer details:
I52 Steward Observatory, Mt. Lemmon Station.  Observers V. F. Carvajal, D.
    Rankin.  Measurers T. Beuden, V. F. Carvajal, D. Fay, J. B. Fazekas, D. C.
    Fuls, A. R. Gibbs, A. D. Grauer, H. Groeller, J. K. Hogan, R. A. Kowalski,
    S. M. Larson, G. J. Leonard, D. Rankin, R. L. Seaman, F. C. Shelly, K. W.
    Wierzchos.  1.0-m prime focus + CCD.
I93 St Pardon de Conques.  Observers F. Losse, W. d'Anna, T. d'Anna.  Measurer
    F. Losse.  0.40-m f/3.7 reflector + CCD.
W16 Pleasant Groves Observatory.  Observer M. Holbrook.  0.36-m f/2.2
    reflector + CCD.

Orbital elements:
2024 GJ5                                                 Earth MOID = 0.0128 AU
Epoch 2024 Mar. 31.0 TT = JDT 2460400.5                 MPC                     
M 101.51771              (2000.0)            P               Q                  
n   1.13697682     Peri.  226.06708     +0.37843588     -0.92136012             
a   0.9091488      Node   202.16752     +0.90229760     +0.38859506             
e   0.2122427      Incl.   13.60887     +0.20650743     -0.00945566             
P   0.87           H   26.92          G   0.15           U   6                  
Residuals in seconds of arc
240412 W16  0.4+  0.0     240412 W16  0.1+  0.4-    240413 I52  0.2+  0.8-
240412 W16  0.5+  0.4+    240413 W16  0.4-  0.4+    240413 I52  0.1+  0.2-
240412 W16  0.4-  0.2-    240413 W16  0.1+  0.2-    240414 I93  0.5+  0.5+
240412 W16  0.2+  0.0     240413 W16  0.3-  0.3+    240414 I93  0.8+  0.4+
240412 W16  0.6-  0.2+    240413 I52  0.2+  0.3-    240414 I93  0.4-  0.0

Ephemeris:
2024 GJ5                 a,e,i = 0.91, 0.21, 14                  q = 0.7162
Date    TT    R. A. (2000) Decl.     Delta      r    Elong.  Phase     V
2024 03 15    00 18 05.6 -56 00 52   0.1247  0.9274    54.4   119.3    27.0
...
2024 03 30    23 04 48.4 -64 12 18   0.05758 0.9804    70.0   106.9    24.7
...
2024 04 07    18 31 03.1 -62 03 48   0.02536 1.0057    99.9    78.7    21.7
...
2024 04 13    15 02 31.1 +00 03 04   0.02234 1.0229   154.3    25.2    19.9
2024 04 14    14 47 55.3 +08 34 14   0.02521 1.0256   153.5    25.9    20.2
2024 04 15    14 36 03.8 +15 10 44   0.02860 1.0283   150.6    28.6    20.5
...
2024 04 21    13 55 54.4 +33 31 22   0.05376 1.0434   134.6    43.3    22.3
...
2024 04 29    13 34 57.9 +40 00 39   0.09090 1.0609   124.3    51.7    23.7
...
2024 05 14    13 23 56.5 +41 45 46   0.1615  1.0854   113.6    58.6    25.2

A. U. Tomatic                (C) Copyright 2024 MPC           M.P.E.C. 2024-G194





More information about the Iaude mailing list